Regional Weather Roundup
Issued by NWS

Home | Current Version | Previous Version | Graphics & Text | Print | Product List | Glossary Off
Versions: 1 2 3 4 5 6 7 8 9 10 11 12 13 14 15 16 17 18 19 20 21 22 23 24 25 26 27 28 29 30 31 32 33 34 35 36 37 38 39 40 41 42 43 44 45 46 47 48 49 50

000
ASUS43 KDTX 022301
RWRMI
MICHIGAN HOURLY REGIONAL WEATHER ROUNDUP
NATIONAL WEATHER SERVICE DETROIT/PONTIAC MI
700 PM EDT TUE SEP 02 2014

NOTE: "FAIR" INDICATES FEW OR NO CLOUDS BELOW 12,000 FEET WITH NO
SIGNIFICANT WEATHER AND/OR OBSTRUCTION TO VISIBILITY.

MIZ047>049-052>055-059>063-066>070-074>076-081>083-030000-
SOUTHEAST LOWER MICHIGAN

CITY           SKY/WX    TMP DP  RH WIND       PRES   REMARKS
ADRIAN         PTSUNNY   78  60  53 NW6       29.91R
ALMA           SUNNY     75  54  47 W5        29.89S
ANN ARBOR      SUNNY     76  58  53 W7        29.89S
BAD AXE        SUNNY     73  55  51 NW9       29.88R
CARO           SUNNY     72  58  61 N6        29.87S
DETROIT CITY   MOSUNNY   79  56  45 NW7       29.88S
DETROIT        MOSUNNY   77  59  53 W7        29.89S
FLINT          SUNNY     78  54  43 NW8       29.88F
GROSSE ILE     SUNNY     77  61  57 W5        29.87S
HILLSDALE      SUNNY     76  62  61 NW5       29.92R
HOWELL         SUNNY     74  58  57 W6        29.89S

CITY           SKY/WX    TMP DP  RH WIND       PRES   REMARKS
JACKSON        SUNNY     76  62  62 NW6       29.91R
LAMBERTVILLE   MOSUNNY   77  64  65 CALM      29.90S
LANSING        SUNNY     76  56  49 W8        29.90S
LAPEER         FAIR      75  54  46 NW8       29.88F
MASON          SUNNY     75  57  53 W7        29.90S
MONROE         MOSUNNY   77  63  61 CALM      29.88R
MT. CLEMENS    MOSUNNY   76  55  48 NW9       29.86F
PONTIAC        MOSUNNY   75  58  55 NW9       29.88F
PORT HOPE        N/A     73  59  61 VRB6      29.85S
TRI CITIES     SUNNY     77  55  46 W8        29.88S
TROY           SUNNY     78  54  43 W7G16     29.90S
SAGINAW HB     MOSUNNY   73  57  56 N3        29.87S
$$
MIZ043>046-050>051-056>058-064>065-071>073-077>080-030000-
SOUTHWEST LOWER MICHIGAN

CITY           SKY/WX    TMP DP  RH WIND       PRES   REMARKS
BATTLE CREEK   SUNNY     76  58  53 NW9       29.92R
BENTON HARBOR  SUNNY     75  61  61 CALM      29.91S
BIG RAPIDS     SUNNY     74  56  52 W5        29.89S
COLDWATER      SUNNY     77  61  56 NW7       29.91S
FREMONT        MOCLDY    74  52  44 W7        29.89F
HOLLAND        SUNNY     75  60  59 W6        29.91F
GRAND RAPIDS   MOSUNNY   76  59  55 W9        29.91S
IONIA          FAIR      76  54  45 W9        29.89S
KALAMAZOO      MOSUNNY   77  58  51 W7        29.91S
LUDINGTON      SUNNY     72  58  61 SW9       29.89F
MARSHALL       SUNNY     76  58  53 NW5       29.91R
MOUNT PLEASANT SUNNY     75  56  50 NW3       29.88S
MUSKEGON       MOSUNNY   74  58  57 SW6       29.90F
SOUTH HAVEN    SUNNY     76  64  66 NW3       29.91S
$$
MIZ016>042-030000-
NORTHERN LOWER MICHIGAN

CITY           SKY/WX    TMP DP  RH WIND       PRES   REMARKS
ALPENA         PTSUNNY   73  52  47 W7        29.85R
BEAVER ISLAND  MOSUNNY   69  60  74 SW8G16    29.85R
BELLAIRE       SUNNY     74  56  54 W3        29.85S
CADILLAC       SUNNY     72  57  59 W8        29.89F
CHARLEVOIX     SUNNY     71  59  66 W9        29.89R
FRANKFORT      SUNNY     71  62  72 SW5       29.88R
GAYLORD        SUNNY     70  52  52 W7        29.87S
GRAYLING       SUNNY     74  56  51 SW7       29.88S
HARBOR SPRINGS SUNNY     70  55  59 W8G16     29.86R
HOUGHTON LAKE  SUNNY     73  55  53 W10       29.88F
MANISTEE       SUNNY     73  57  56 W10       29.88F
OSCODA         MOSUNNY   74  55  50 W6        29.85S
PELLSTON       SUNNY     70  55  59 SW12      29.85R
ROGERS CITY    PTSUNNY   72  59  64 W5        29.86R
TRAVERSE CITY  MOSUNNY   74  54  49 SW8       29.85S
$$
MIZ007>008-015-030000-
EASTERN UPPER MICHIGAN

CITY           SKY/WX    TMP DP  RH WIND       PRES   REMARKS
KINROSS        MOSUNNY   66  55  68 W6        29.83R
MACKINAC ISLAN SUNNY     65  60  83 SW14G20   29.84S
NEWBERRY       PTSUNNY   64  60  86 W5        29.83S
S. S. MARIE    TSTM      61  56  83 SW12      29.82R VSB 1
$$
MIZ004>006-011>014-085-030000-
CENTRAL UPPER MICHIGAN

CITY           SKY/WX    TMP DP  RH WIND       PRES   REMARKS
MANISTIQUE     PTSUNNY   67  59  76 NE6       29.84R
ESCANABA       SUNNY     75  52  43 W5        29.82S
MENOMINEE      SUNNY     73  57  56 W3        29.84S
SAWYER-GWINN   SUNNY     72  48  43 W5        29.84S
$$
MIZ001>003-009>011-084-030000-
WESTERN UPPER MICHIGAN

CITY           SKY/WX    TMP DP  RH WIND       PRES   REMARKS
IRON MOUNTAIN  SUNNY     73  50  44 W7        29.84S
HOUGHTON       MOSUNNY   70  48  45 W9        29.80S
COPPER HARBOR    N/A     72  47  40 W8        29.78S
$$

ABBREVIATIONS USED IN REMARKS
   TC - TEMPERATURE IN CELSIUS
  WCI - WIND CHILL INDEX
   HX - HEAT INDEX
  VSB - VISIBILITY




USA.gov is the U.S. government's official web portal to all federal, state and local government web resources and services.